| time (UTC) | temp F | wind direction | speed knots | gust knots | rain 1hr in | rain 24hr in | rain mn in | humidity % | barometer mb |
| 20260505074946 | 56 | 0 | 0.0 | 0.0 | 0.00 | 0.00 | 0.00 | 57 | 1008.4 |
| 20260505074446 | 56 | 0 | 0.0 | 0.0 | 0.00 | 0.00 | 0.00 | 57 | 1008.5 |
| 20260505073945 | 56 | 0 | 0.0 | 0.0 | 0.00 | 0.00 | 0.00 | 57 | 1008.4 |
| 20260505073445 | 56 | 0 | 0.0 | 0.0 | 0.00 | 0.00 | 0.00 | 56 | 1008.4 |
| 20260505072946 | 57 | 0 | 0.0 | 0.0 | 0.00 | 0.00 | 0.00 | 56 | 1008.4 |
| 20260505071446 | 57 | 0 | 0.0 | 0.0 | 0.00 | 0.00 | 0.00 | 54 | 1008.1 |
| 20260505070947 | 58 | 0 | 0.0 | 0.0 | 0.00 | 0.00 | 0.00 | 54 | 1008.0 |
| 20260505070446 | 58 | 0 | 0.0 | 0.0 | 0.00 | 0.00 | 0.00 | 54 | 1007.9 |
| 20260505065948 | 58 | 0 | 0.0 | 0.0 | 0.00 | 0.00 | 0.00 | 53 | 1007.8 |
| 20260505065446 | 58 | 0 | 0.0 | 0.0 | 0.00 | 0.00 | 0.00 | 54 | 1007.8 |
| 20260505064946 | 58 | 68 | 0.0 | 1.7 | 0.00 | 0.00 | 0.00 | 53 | 1007.8 |
| 20260505064446 | 58 | 84 | 0.0 | 1.7 | 0.00 | 0.00 | 0.00 | 53 | 1007.6 |
| 20260505063946 | 58 | 93 | 0.0 | 0.9 | 0.00 | 0.00 | 0.00 | 52 | 1007.7 |
| 20260505063446 | 59 | 0 | 0.0 | 0.0 | 0.00 | 0.00 | 0.00 | 53 | 1007.6 |
| 20260505061947 | 59 | 0 | 0.0 | 0.0 | 0.00 | 0.00 | 0.00 | 50 | 1007.5 |
| 20260505061446 | 60 | 0 | 0.0 | 0.0 | 0.00 | 0.00 | 0.00 | 50 | 1007.4 |
| 20260505060946 | 60 | 0 | 0.0 | 0.0 | 0.00 | 0.00 | 0.00 | 49 | 1007.5 |
| 20260505060446 | 60 | 0 | 0.0 | 0.0 | 0.00 | 0.00 | 0.00 | 49 | 1007.5 |
| 20260505055946 | 61 | 0 | 0.0 | 0.0 | 0.00 | 0.00 | 0.00 | 49 | 1007.5 |
| 20260505055446 | 61 | 0 | 0.0 | 0.0 | 0.00 | 0.00 | 0.00 | 47 | 1007.4 |
| 20260505054946 | 61 | 0 | 0.0 | 0.0 | 0.00 | 0.00 | 0.00 | 47 | 1007.4 |
| 20260505054446 | 62 | 0 | 0.0 | 0.0 | 0.00 | 0.00 | 0.00 | 46 | 1007.4 |
| 20260505053946 | 62 | 0 | 0.0 | 0.0 | 0.00 | 0.00 | 0.00 | 45 | 1007.3 |
| 20260505052946 | 63 | 0 | 0.0 | 0.0 | 0.00 | 0.00 | 0.00 | 43 | 1007.2 |
| 20260505052445 | 64 | 0 | 0.0 | 0.0 | 0.00 | 0.00 | 0.00 | 42 | 1007.1 |
| 20260505051945 | 65 | 0 | 0.0 | 0.0 | 0.00 | 0.00 | 0.00 | 41 | 1007.1 |
| 20260505051445 | 65 | 0 | 0.0 | 0.0 | 0.00 | 0.00 | 0.00 | 40 | 1007.1 |
| 20260505050945 | 66 | 0 | 0.0 | 0.0 | 0.00 | 0.00 | 0.00 | 40 | 1007.1 |
| 20260505050446 | 66 | 85 | 0.0 | 7.8 | 0.00 | 0.00 | 0.00 | 38 | 1007.0 |
| 20260505041446 | 65 | 0 | 0.0 | 0.0 | 0.00 | 0.00 | 0.00 | 40 | 1006.5 |
| 20260505040946 | 65 | 0 | 0.0 | 0.0 | 0.00 | 0.00 | 0.00 | 40 | 1006.4 |
| 20260505040446 | 66 | 0 | 0.0 | 0.0 | 0.00 | 0.00 | 0.00 | 40 | 1006.4 |
| 20260505035946 | 66 | 97 | 0.0 | 3.5 | 0.00 | 0.00 | 0.00 | 40 | 1006.3 |
| 20260505035446 | 66 | 97 | 0.0 | 3.5 | 0.00 | 0.00 | 0.00 | 41 | 1006.2 |
| 20260505034945 | 67 | 0 | 0.0 | 0.0 | 0.00 | 0.00 | 0.00 | 40 | 1006.1 |
| 20260505033946 | 68 | 0 | 0.0 | 0.0 | 0.00 | 0.00 | 0.00 | 38 | 1006.0 |
| 20260505033446 | 68 | 0 | 0.0 | 0.0 | 0.00 | 0.00 | 0.00 | 37 | 1006.0 |
| 20260505032946 | 69 | 0 | 0.0 | 0.0 | 0.00 | 0.00 | 0.00 | 36 | 1006.0 |
| 20260505032446 | 69 | 31 | 0.0 | 0.9 | 0.00 | 0.00 | 0.00 | 35 | 1005.9 |
| 20260505031946 | 70 | 31 | 0.0 | 0.9 | 0.00 | 0.00 | 0.00 | 35 | 1005.9 |
| 20260505031446 | 70 | 42 | 0.0 | 2.6 | 0.00 | 0.00 | 0.00 | 34 | 1005.8 |
| 20260505030946 | 70 | 42 | 0.0 | 2.6 | 0.00 | 0.00 | 0.00 | 33 | 1005.8 |
| 20260505030446 | 71 | 0 | 0.0 | 0.0 | 0.00 | 0.00 | 0.00 | 33 | 1005.8 |
| 20260505025946 | 71 | 0 | 0.0 | 0.0 | 0.00 | 0.00 | 0.00 | 33 | 1005.7 |
| 20260505024946 | 72 | 14 | 0.0 | 4.3 | 0.00 | 0.00 | 0.00 | 31 | 1005.6 |
| 20260505023946 | 73 | 13 | 0.9 | 6.1 | 0.00 | 0.00 | 0.00 | 31 | 1005.5 |
| 20260505023447 | 73 | 26 | 1.7 | 8.7 | 0.00 | 0.00 | 0.00 | 30 | 1005.5 |
| 20260505022946 | 73 | 25 | 0.9 | 8.7 | 0.00 | 0.00 | 0.00 | 29 | 1005.4 |
| 20260505022446 | 74 | 356 | 0.0 | 5.2 | 0.00 | 0.00 | 0.00 | 30 | 1005.4 |
| 20260505021946 | 74 | 22 | 0.9 | 7.8 | 0.00 | 0.00 | 0.00 | 29 | 1005.4 |
| 20260505021446 | 74 | 21 | 1.7 | 8.7 | 0.00 | 0.00 | 0.00 | 29 | 1005.4 |
| 20260505020946 | 74 | 18 | 1.7 | 8.7 | 0.00 | 0.00 | 0.00 | 29 | 1005.3 |
| 20260505020446 | 75 | 10 | 1.7 | 7.8 | 0.00 | 0.00 | 0.00 | 28 | 1005.5 |
| 20260505015947 | 75 | 6 | 1.7 | 7.8 | 0.00 | 0.00 | 0.00 | 28 | 1005.5 |
| 20260505014446 | 76 | 10 | 3.5 | 10.4 | 0.00 | 0.00 | 0.00 | 28 | 1005.6 |
| 20260505013946 | 76 | 3 | 2.6 | 9.6 | 0.00 | 0.00 | 0.00 | 27 | 1005.6 |
| 20260505013446 | 76 | 21 | 3.5 | 9.6 | 0.00 | 0.00 | 0.00 | 27 | 1005.6 |
| 20260505012947 | 76 | 20 | 4.3 | 11.3 | 0.00 | 0.00 | 0.00 | 25 | 1005.6 |
| 20260505012446 | 76 | 15 | 5.2 | 11.3 | 0.00 | 0.00 | 0.00 | 24 | 1005.6 |
| 20260505011946 | 76 | 14 | 6.1 | 11.3 | 0.00 | 0.00 | 0.00 | 26 | 1005.7 |
| 20260505011446 | 77 | 14 | 5.2 | 14.8 | 0.00 | 0.00 | 0.00 | 25 | 1005.7 |
| 20260505010946 | 77 | 12 | 4.3 | 14.8 | 0.00 | 0.00 | 0.00 | 25 | 1005.7 |
| 20260505010446 | 77 | 2 | 5.2 | 9.6 | 0.00 | 0.00 | 0.00 | 25 | 1005.6 |
| 20260505005946 | 77 | 350 | 3.5 | 8.7 | 0.00 | 0.00 | 0.00 | 25 | 1005.6 |
| 20260505005447 | 77 | 355 | 4.3 | 8.7 | 0.00 | 0.00 | 0.00 | 25 | 1005.7 |
| 20260505004446 | 78 | 18 | 5.2 | 10.4 | 0.00 | 0.00 | 0.00 | 25 | 1005.6 |
| 20260505003945 | 78 | 19 | 4.3 | 10.4 | 0.00 | 0.00 | 0.00 | 25 | 1005.7 |
| 20260505003446 | 78 | 13 | 2.6 | 10.4 | 0.00 | 0.00 | 0.00 | 25 | 1005.6 |
| 20260505002946 | 78 | 358 | 4.3 | 8.7 | 0.00 | 0.00 | 0.00 | 26 | 1005.6 |
| 20260505002445 | 78 | 5 | 5.2 | 13.0 | 0.00 | 0.00 | 0.00 | 27 | 1005.9 |
| 20260505001948 | 78 | 9 | 6.1 | 13.0 | 0.00 | 0.00 | 0.00 | 26 | 1005.8 |
| 20260505001446 | 78 | 2 | 5.2 | 10.4 | 0.00 | 0.00 | 0.00 | 25 | 1005.7 |
| 20260505000946 | 78 | 353 | 5.2 | 10.4 | 0.00 | 0.00 | 0.00 | 27 | 1005.8 |
| 20260505000446 | 78 | 355 | 6.1 | 11.3 | 0.00 | 0.00 | 0.00 | 25 | 1005.8 |
| 20260504235946 | 78 | 6 | 6.1 | 11.3 | 0.00 | 0.00 | 0.00 | 25 | 1005.7 |
| 20260504235445 | 78 | 14 | 7.0 | 12.2 | 0.00 | 0.00 | 0.00 | 24 | 1005.7 |
| 20260504234946 | 78 | 18 | 7.0 | 13.0 | 0.00 | 0.00 | 0.00 | 23 | 1005.8 |
| 20260504234446 | 78 | 14 | 6.1 | 13.0 | 0.00 | 0.00 | 0.00 | 25 | 1005.8 |
| 20260504233945 | 78 | 13 | 6.1 | 13.0 | 0.00 | 0.00 | 0.00 | 26 | 1005.7 |
| 20260504233446 | 78 | 27 | 7.0 | 13.0 | 0.00 | 0.00 | 0.00 | 26 | 1005.7 |
| 20260504232945 | 78 | 34 | 7.8 | 13.0 | 0.00 | 0.00 | 0.00 | 26 | 1005.8 |
| 20260504232446 | 78 | 39 | 7.8 | 13.0 | 0.00 | 0.00 | 0.00 | 26 | 1005.8 |
| 20260504231946 | 78 | 39 | 7.0 | 11.3 | 0.00 | 0.00 | 0.00 | 26 | 1005.9 |
| 20260504231446 | 79 | 23 | 6.1 | 13.0 | 0.00 | 0.00 | 0.00 | 26 | 1005.9 |
| 20260504230946 | 79 | 356 | 5.2 | 13.0 | 0.00 | 0.00 | 0.00 | 27 | 1005.8 |
| 20260504230446 | 78 | 358 | 6.1 | 15.6 | 0.00 | 0.00 | 0.00 | 27 | 1005.8 |
| 20260504225446 | 79 | 32 | 5.2 | 13.0 | 0.00 | 0.00 | 0.00 | 28 | 1005.8 |
| 20260504224945 | 78 | 9 | 5.2 | 12.2 | 0.00 | 0.00 | 0.00 | 28 | 1005.9 |
| 20260504224446 | 78 | 344 | 5.2 | 13.0 | 0.00 | 0.00 | 0.00 | 28 | 1006.0 |
| 20260504223946 | 78 | 349 | 6.1 | 13.0 | 0.00 | 0.00 | 0.00 | 28 | 1006.0 |
| 20260504223446 | 78 | 359 | 7.0 | 12.2 | 0.00 | 0.00 | 0.00 | 27 | 1006.0 |
| 20260504222946 | 78 | 353 | 5.2 | 12.2 | 0.00 | 0.00 | 0.00 | 27 | 1005.9 |
| 20260504222445 | 78 | 351 | 5.2 | 9.6 | 0.00 | 0.00 | 0.00 | 27 | 1005.9 |
| 20260504221946 | 78 | 349 | 6.1 | 12.2 | 0.00 | 0.00 | 0.00 | 26 | 1005.9 |
| 20260504220946 | 78 | 350 | 5.2 | 11.3 | 0.00 | 0.00 | 0.00 | 26 | 1006.0 |
| 20260504220446 | 78 | 358 | 6.1 | 9.6 | 0.00 | 0.00 | 0.00 | 26 | 1006.0 |
| 20260504215946 | 78 | 350 | 5.2 | 10.4 | 0.00 | 0.00 | 0.00 | 27 | 1006.0 |
| 20260504215446 | 78 | 344 | 5.2 | 10.4 | 0.00 | 0.00 | 0.00 | 26 | 1006.0 |
| 20260504214946 | 78 | 347 | 6.1 | 9.6 | 0.00 | 0.00 | 0.00 | 27 | 1005.9 |
| 20260504214446 | 78 | 355 | 6.1 | 12.2 | 0.00 | 0.00 | 0.00 | 28 | 1006.1 |
| 20260504213446 | 78 | 359 | 6.1 | 12.2 | 0.00 | 0.00 | 0.00 | 29 | 1006.3 |
| 20260504212945 | 78 | 2 | 6.1 | 12.2 | 0.00 | 0.00 | 0.00 | 28 | 1006.2 |
| 20260504211946 | 78 | 336 | 6.1 | 13.9 | 0.00 | 0.00 | 0.00 | 28 | 1006.1 |
| 20260504211446 | 78 | 328 | 7.0 | 13.9 | 0.00 | 0.00 | 0.00 | 29 | 1006.1 |
| 20260504210446 | 78 | 357 | 7.0 | 13.0 | 0.00 | 0.00 | 0.00 | 29 | 1006.2 |
| 20260504205946 | 78 | 346 | 7.0 | 12.2 | 0.00 | 0.00 | 0.00 | 29 | 1006.1 |
| 20260504205446 | 78 | 346 | 6.1 | 12.2 | 0.00 | 0.00 | 0.00 | 30 | 1006.2 |
| 20260504204946 | 78 | 2 | 7.0 | 13.0 | 0.00 | 0.00 | 0.00 | 30 | 1006.2 |
| 20260504204446 | 78 | 4 | 6.1 | 13.0 | 0.00 | 0.00 | 0.00 | 29 | 1006.2 |
| 20260504203446 | 78 | 2 | 7.0 | 12.2 | 0.00 | 0.00 | 0.00 | 33 | 1006.2 |
| 20260504202446 | 77 | 349 | 6.1 | 11.3 | 0.00 | 0.00 | 0.00 | 33 | 1006.3 |
| 20260504201945 | 77 | 355 | 6.1 | 12.2 | 0.00 | 0.00 | 0.00 | 31 | 1006.3 |
| 20260504201446 | 77 | 7 | 6.1 | 13.9 | 0.00 | 0.00 | 0.00 | 32 | 1006.3 |
| 20260504200946 | 77 | 354 | 6.1 | 13.9 | 0.00 | 0.00 | 0.00 | 33 | 1006.3 |
| 20260504200445 | 76 | 345 | 6.1 | 11.3 | 0.00 | 0.00 | 0.00 | 34 | 1006.4 |
| 20260504195946 | 76 | 348 | 6.1 | 11.3 | 0.00 | 0.00 | 0.00 | 33 | 1006.4 |
| 20260504195446 | 76 | 349 | 6.1 | 11.3 | 0.00 | 0.00 | 0.00 | 33 | 1006.4 |
| 20260504194946 | 76 | 350 | 5.2 | 10.4 | 0.00 | 0.00 | 0.00 | 34 | 1006.4 |
| 20260504194446 | 76 | 351 | 6.1 | 12.2 | 0.00 | 0.00 | 0.00 | 34 | 1006.5 |
| 20260504193945 | 76 | 359 | 6.1 | 12.2 | 0.00 | 0.00 | 0.00 | 34 | 1006.4 |
| 20260504193446 | 76 | 14 | 5.2 | 13.0 | 0.00 | 0.00 | 0.00 | 34 | 1006.5 |
| 20260504192446 | 76 | 6 | 5.2 | 10.4 | 0.00 | 0.00 | 0.00 | 34 | 1006.6 |
| 20260504191446 | 75 | 359 | 4.3 | 9.6 | 0.00 | 0.00 | 0.00 | 37 | 1006.6 |
| 20260504190946 | 75 | 11 | 6.1 | 11.3 | 0.00 | 0.00 | 0.00 | 34 | 1006.7 |
| 20260504185946 | 75 | 7 | 6.1 | 11.3 | 0.00 | 0.00 | 0.00 | 35 | 1006.8 |
| 20260504185446 | 74 | 357 | 6.1 | 10.4 | 0.00 | 0.00 | 0.00 | 35 | 1006.8 |
| 20260504184947 | 74 | 356 | 6.1 | 10.4 | 0.00 | 0.00 | 0.00 | 36 | 1006.8 |
| 20260504184446 | 74 | 359 | 6.1 | 12.2 | 0.00 | 0.00 | 0.00 | 37 | 1006.9 |
| 20260504182946 | 74 | 343 | 5.2 | 11.3 | 0.00 | 0.00 | 0.00 | 36 | 1006.9 |
| 20260504182446 | 74 | 6 | 5.2 | 10.4 | 0.00 | 0.00 | 0.00 | 38 | 1006.9 |
| 20260504181946 | 73 | 12 | 3.5 | 10.4 | 0.00 | 0.00 | 0.00 | 38 | 1006.9 |
| 20260504181446 | 74 | 7 | 2.6 | 7.8 | 0.00 | 0.00 | 0.00 | 37 | 1006.9 |
| 20260504180946 | 73 | 1 | 4.3 | 10.4 | 0.00 | 0.00 | 0.00 | 38 | 1007.0 |
| 20260504180446 | 73 | 356 | 5.2 | 10.4 | 0.00 | 0.00 | 0.00 | 38 | 1007.0 |
| 20260504175946 | 73 | 351 | 3.5 | 10.4 | 0.00 | 0.00 | 0.00 | 40 | 1006.9 |
| 20260504175446 | 73 | 8 | 4.3 | 10.4 | 0.00 | 0.00 | 0.00 | 40 | 1007.0 |
| 20260504174945 | 72 | 13 | 4.3 | 9.6 | 0.00 | 0.00 | 0.00 | 39 | 1007.0 |
| 20260504173946 | 72 | 13 | 1.7 | 9.6 | 0.00 | 0.00 | 0.00 | 40 | 1007.0 |
| 20260504173446 | 71 | 23 | 3.5 | 10.4 | 0.00 | 0.00 | 0.00 | 39 | 1007.1 |
| 20260504172946 | 71 | 8 | 4.3 | 10.4 | 0.00 | 0.00 | 0.00 | 37 | 1007.1 |
| 20260504172447 | 71 | 15 | 4.3 | 9.6 | 0.00 | 0.00 | 0.00 | 40 | 1007.1 |
| 20260504171946 | 70 | 22 | 4.3 | 10.4 | 0.00 | 0.00 | 0.00 | 40 | 1007.2 |
| 20260504171447 | 70 | 12 | 2.6 | 10.4 | 0.00 | 0.00 | 0.00 | 41 | 1007.2 |
| 20260504170946 | 70 | 11 | 1.7 | 10.4 | 0.00 | 0.00 | 0.00 | 42 | 1007.2 |
| 20260504170446 | 69 | 15 | 1.7 | 10.4 | 0.00 | 0.00 | 0.00 | 40 | 1007.2 |
| 20260504160446 | 62 | 0 | 0.0 | 0.0 | 0.00 | 0.00 | 0.00 | 57 | 1007.2 |
| 20260504150946 | 56 | 0 | 0.0 | 0.0 | 0.00 | 0.00 | 0.00 | 71 | 1007.5 |
| 20260504150446 | 55 | 0 | 0.0 | 0.0 | 0.00 | 0.00 | 0.00 | 72 | 1007.5 |
| 20260504110446 | 50 | 0 | 0.0 | 0.0 | 0.00 | 0.00 | 0.00 | 76 | 1006.3 |
| 20260504100446 | 54 | 0 | 0.0 | 0.0 | 0.00 | 0.00 | 0.00 | 69 | 1006.4 |
| 20260504081946 | 56 | 150 | 0.0 | 3.5 | 0.00 | 0.00 | 0.00 | 69 | 1006.1 |
| 20260504081446 | 56 | 150 | 0.0 | 3.5 | 0.00 | 0.00 | 0.00 | 68 | 1006.1 |
| 20260504080946 | 56 | 147 | 0.0 | 4.3 | 0.00 | 0.00 | 0.00 | 66 | 1006.1 |
| 20260504080446 | 56 | 148 | 0.0 | 4.3 | 0.00 | 0.00 | 0.00 | 66 | 1006.1 |